"2014-08-06 00:01:00",1267729,-6.612694,-3.822387,-92.96317,20.61768,-57.09111,20.67985,0,-1.246642,-48.13564,12.41552,0,0.004,856,0,0,0,13.2604,11.90778,11.69451,21.01172,21.74906,21.34068,19.39285,15.98186,13.55723,19.15733,"NAN","NAN",20.85514,-54.65371,-17.59633,-9.38142,-14.75256,0.4976587,30.13328,35.32127,37.72877,39.28403,28.20276,34.09831,38.44989,38.9766,31.62299,0.3794707,0.5844907,0.6924317,0.7664769,0.3128003,0.5327674,0.7263418,0.751571,0.4344848,1.000153,11.44966,13.54013,329.3,365.6,328.9,-39.42,10.21
"2014-08-06 00:02:00",1267730,-6.544343,-3.732798,-93.07749,20.60755,-56.86725,20.62425,0,-1.495972,-48.69538,12.43817,0,0.004,1024,0,0,0,13.31953,11.95087,11.79349,21.01172,21.73892,21.34068,19.38628,15.98884,13.56758,19.14423,"NAN","NAN",20.85869,-54.68516,-17.61421,-9.409231,-14.78067,0.4978906,30.1265,35.31675,37.75364,39.25239,28.17338,34.12543,38.4838,38.92913,31.62525,0.3792274,0.5842955,0.6935881,0.7649353,0.3118258,0.5338948,0.7279564,0.7492813,0.4345706,1.000153,11.43083,13.53185,329.2,365.5,328.5,-39.78,10.19
"2014-08-06 00:03:00",1267731,-6.487383,-3.649182,-93.42034,20.55225,-57.03518,20.6215,0,-1.454417,-49.03122,12.47798,0,0.004,1259,0,0,0,13.27401,12.04213,11.89218,21.01172,21.75291,21.33411,19.38628,15.98186,13.5643,19.13413,"NAN","NAN",20.85869,-54.71138,-17.62955,-9.436227,-14.80709,0.4989745,30.10842,35.30319,37.76494,39.23883,28.19372,34.10283,38.45667,38.9653,31.60039,0.3785793,0.5837116,0.6941155,0.7642772,0.3124999,0.5329555,0.7266638,0.7510253,0.4336273,1.000153,11.42707,13.53645,328.5,365.3,328.4,-39.75,10.16
"2014-08-06 00:04:00",1267732,-6.430426,-3.619319,-94.27744,20.61492,-57.81881,20.61794,0,-1.121979,-49.36707,12.51437,0,0.004,1245,0,0,0,13.21143,12.07835,11.95434,21.01172,21.72935,21.34068,19.38628,15.98186,13.56085,19.14095,"NAN","NAN",20.85869,-54.74548,-17.64484,-9.469748,-14.83432,0.4995166,30.11972,35.37101,37.73555,39.25465,28.16434,34.18873,38.44311,38.96982,31.62073,0.3789844,0.5866424,0.6927468,0.7650452,0.3115261,0.5365269,0.7260196,0.7512429,0.4343989,1.000153,11.4233,13.49503,328,364.5,328.2,-39.06,10
"2014-08-06 00:05:00",1267733,-6.401857,-3.619268,-93.30625,20.59218,-57.25918,20.62149,0,-1.2882,-49.31118,12.54059,0,0.004,989,0,0,0,13.15591,11.91372,11.91872,21.01501,21.72935,21.34396,19.3797,15.98186,13.56085,19.1379,"NAN","NAN",20.85541,-54.82156,-17.65997,-9.501542,-14.86141,0.4995143,30.11068,35.36422,37.74459,39.25917,28.18242,34.15256,38.44085,38.97886,31.60717,0.3786607,0.5863524,0.6931673,0.765265,0.3121253,0.5350222,0.725912,0.7516859,0.4338844,1.000153,11.40824,13.45361,328.9,365.1,328.4,-39.42,10.11
"2014-08-06 00:06:00",1267734,-6.390466,-3.613296,-92.16349,20.52346,-56.13974,20.56893,0,-1.495975,-49.14326,12.57026,0,0.004,924,0,0,0,13.10007,12.07508,11.97728,21.01501,21.70278,21.3341,19.39285,15.98535,13.5643,19.10763,"NAN","NAN",20.85541,-54.85041,-17.67361,-9.533448,-14.88783,0.499282,30.12424,35.30319,37.77172,39.26821,28.19146,34.10961,38.46571,38.96304,31.61621,0.3791463,0.5837111,0.6944315,0.7657059,0.312425,0.5332356,0.7270938,0.7509158,0.4342273,1.000153,11.40448,13.36617,329.6,365.9,328.8,-39.91,10.27
"2014-08-06 00:07:00",1267735,-6.356306,-3.577469,-91.7637,20.43369,-55.46819,20.49992,0,-1.495978,-49.31128,12.60632,0,0.004,1072,0,0,0,13.09367,12.2199,12.01321,21.01172,21.70278,21.33739,19.39614,15.98884,13.56413,19.07884,"NAN","NAN",20.85541,-54.86354,-17.68814,-9.564563,-14.91429,0.4991255,30.1265,35.30545,37.73103,39.31569,28.16886,34.10283,38.46798,38.94043,31.60717,0.3792274,0.5838087,0.6925365,0.7680233,0.3116757,0.5329546,0.7272013,0.7498268,0.4338849,1.000166,11.40448,13.42048,329.5,366.2,328.8,-40.16,10.33
"2014-08-06 00:08:00",1267736,-6.322145,-3.535669,-91.64951,20.37429,-55.58018,20.4367,0,-1.495979,-49.36729,12.64568,0,0.004,4923,0,0,0,13.0868,12.2263,12.04335,21.00187,21.6995,21.33739,19.3797,15.98535,13.56085,19.07228,"NAN","NAN",20.85869,-54.88716,-17.69925,-9.593209,-14.93902,0.5002856,30.12876,35.31223,37.74685,39.27047,28.18694,34.11413,38.47023,38.95399,31.61847,0.3793085,0.5841006,0.6932724,0.7658153,0.3122749,0.5334228,0.7273088,0.7504795,0.4343132,1.000153,11.40448,13.78772,329.3,365.7,328.9,-39.54,10.23
"2014-08-06 00:09:00",1267737,-6.310753,-3.529696,-91.64956,20.34801,-56.02799,20.37074,0,-1.49598,-49.42329,12.67519,0,0.004,4973,0,0,0,13.07042,12.11492,12.07022,20.98872,21.6995,21.33739,19.37641,15.98884,13.55723,19.06924,"NAN","NAN",20.85869,-54.89241,-17.71123,-9.622689,-14.96548,0.5022994,30.10163,35.34162,37.75138,39.22752,28.20728,34.14352,38.44763,38.9653,31.61395,0.3783362,0.5853797,0.693485,0.7637274,0.3129524,0.5346541,0.7262349,0.7510248,0.4341415,1.000153,11.40448,13.55302,329.1,364.9,329,-38.61,10.07
"2014-08-06 00:10:00",1267738,-6.322254,-3.553647,-91.70694,20.29464,-56.86772,20.37074,0,-1.329763,-49.36745,12.7178,0,0.004,4478,0,0,0,13.06387,12.10837,12.03647,20.9756,21.70634,21.33739,19.38299,15.98186,13.5574,19.04807,"NAN","NAN",20.85541,-54.90034,-17.72256,-9.65228,-14.99041,0.5046193,30.13328,35.30093,37.76946,39.25239,28.19146,34.10057,38.44989,39.03085,31.60039,0.3794708,0.5836136,0.6943262,0.7649354,0.312425,0.5328607,0.726342,0.754209,0.433627,1.000153,11.40071,13.51988,328.7,364,329.3,-37.48,9.91
"2014-08-06 00:11:00",1267739,-6.384907,-3.637263,-92.16405,20.33105,-57.59536,20.37784,0,-0.9973226,-48.80773,12.70141,0,0.004,4971,0,0,0,13.11954,12.1935,12.12862,20.95589,21.68636,21.33739,19.39614,15.98535,13.5643,19.05209,"NAN","NAN",20.85869,-55.00264,-17.73193,-9.68337,-15.01768,0.5033026,30.1152,35.30093,37.7559,39.27047,28.1779,34.08927,38.45667,39.10093,31.59813,0.3788221,0.5836131,0.6936933,0.7658151,0.3119751,0.5323943,0.7266671,0.7576059,0.4335416,1.000153,11.40071,13.62573,328.5,363.3,329.8,-36.3,9.78
"2014-08-06 00:12:00",1267740,-6.458946,-3.70893,-91.87856,20.36719,-57.70743,20.37074,0,-0.9973247,-48.80783,12.67815,0,0.004,2112,0,0,0,13.15575,12.26584,12.14173,20.93289,21.68992,21.34068,19.38299,15.98186,13.56413,19.02912,"NAN","NAN",20.85869,-55.1391,-17.74214,-9.711994,-15.04238,0.5016742,30.11746,35.30997,37.70164,39.39028,28.17111,34.08249,38.46345,38.96982,31.60491,0.3789029,0.5840032,0.6911703,0.7716782,0.3117512,0.5321125,0.7269862,0.7512429,0.4337984,1.000153,11.39694,13.50976,329,363.2,329.7,-36.27,9.75
"2014-08-06 00:13:00",1267741,-6.52729,-3.780598,-92.22149,20.37429,-57.98736,20.41424,0,-0.9973258,-48.52803,12.65864,0,0.004,1763,0,0,0,13.14246,12.21663,12.13237,20.93289,21.6932,21.34068,19.3797,15.99232,13.56413,19.00312,"NAN","NAN",20.85869,-55.25717,-17.75236,-9.738988,-15.06793,0.5013626,30.11746,35.30545,37.73329,39.35185,28.16207,34.09379,38.46119,38.95626,31.60039,0.3789031,0.5838082,0.6926417,0.7697933,0.3114513,0.5325802,0.7268791,0.750592,0.4336267,1.000153,11.39694,13.43152,328.7,363.2,329.8,-36.06,9.74
"2014-08-06 00:14:00",1267742,-6.52729,-3.816433,-91.7644,20.41424,-57.7075,20.46732,0,-0.9973259,-48.02429,12.64207,0,0.004,3721,0,0,0,13.13264,12.18054,12.09271,20.93289,21.68636,21.33739,19.38628,15.98535,13.56085,19.01016,"NAN","NAN",20.85541,-55.29915,-17.76088,-9.768439,-15.0935,0.502137,30.11746,35.30997,37.74234,39.29986,28.17112,34.14126,38.44537,38.98112,31.60265,0.3789031,0.5840032,0.6930621,0.767252,0.3117512,0.5345547,0.7261276,0.7517897,0.4337125,1.000153,11.38564,13.48583,329.4,363.7,330.3,-36.19,9.85
"2014-08-06 00:15:00",1267743,-6.493111,-3.822402,-91.93585,20.44604,-57.93142,20.46325,0,-0.9973264,-47.85639,12.63239,0,0.004,3572,0,0,0,13.16868,12.10837,12.02024,20.93289,21.68992,21.34068,19.383,15.98186,13.56775,18.98695,"NAN","NAN",20.85869,-55.34644,-17.76853,-9.796248,-15.1182,0.5026786,30.10842,35.33936,37.74007,39.26821,28.1779,34.12317,38.45215,38.9653,31.59813,0.3785793,0.5852746,0.6929572,0.7657049,0.3119752,0.5337992,0.7264493,0.7510252,0.4335417,1.000153,11.38188,13.76287,329.4,363.5,330.4,-35.79,9.81
"2014-08-06 00:16:00",1267744,-6.458937,-3.846292,-92.33582,20.46706,-58.43517,20.53253,0,-0.9142159,-47.80042,12.57026,0,0.004,1662,0,0,0,13.20849,12.07227,11.99429,20.93289,21.68964,21.34068,19.39285,15.98186,13.56775,18.98695,"NAN","NAN",20.85869,-55.36742,-17.77876,-9.825702,-15.14121,0.502756,30.11972,35.2851,37.77172,39.24561,28.18016,34.12091,38.46571,38.94495,31.62299,0.3789847,0.5829317,0.6944311,0.7646056,0.31205,0.5337044,0.7270937,0.7500444,0.4344862,1.00014,11.38188,13.54749,329.1,363.4,330.1,-35.9,9.79
"2014-08-06 00:17:00",1267745,-6.441888,-3.816453,-92.22147,20.45944,-58.65902,20.54265,0,-0.9973256,-47.46454,12.52436,0,0.004,1755,0,0,0,13.20816,12.04275,11.93543,20.93289,21.68992,21.33411,19.37641,15.98883,13.5643,18.99048,"NAN","NAN",20.85869,-55.38532,-17.78828,-9.859324,-15.1669,0.5024469,30.10616,35.30771,37.77398,39.24335,28.18694,34.09379,38.45441,39.00825,31.59361,0.3784979,0.5839061,0.6945364,0.7644961,0.312275,0.5325804,0.7265567,0.7531035,0.4333698,1.000153,11.38188,13.58063,329.2,363.2,330.2,-35.65,9.75
"2014-08-06 00:18:00",1267746,-6.367882,-3.768696,-92.3357,20.54974,-58.77094,20.56893,0,-0.9973252,-47.35258,12.52748,0,0.004,1424,0,0,0,13.18505,11.94743,11.89966,20.93289,21.68636,21.34068,19.38628,16.00258,13.57085,18.97712,"NAN","NAN",20.84884,-55.42706,-17.79517,-9.899454,-15.19167,0.503377,30.12424,35.29641,37.74685,39.26143,28.17564,34.09153,38.47475,38.96756,31.5823,0.3791462,0.5834184,0.6932724,0.7653749,0.3119003,0.5324864,0.7275245,0.751134,0.4329419,1.00014,11.38188,13.50424,329.6,363.3,330.3,-35.53,9.76
"2014-08-06 00:19:00",1267747,-6.282446,-3.762723,-92.22144,20.59522,-58.93886,20.61822,0,-0.9973252,-46.96078,12.53748,0,0.004,1521,0,0,0,13.19833,11.95401,11.90309,20.93289,21.68992,21.33082,19.38628,16.00278,13.5643,18.92109,"NAN","NAN",20.85869,-55.41397,-17.80623,-9.940352,-15.21381,0.5048486,30.11294,35.30771,37.74007,39.25465,28.18016,34.11187,38.47023,38.97434,31.59813,0.378742,0.5839129,0.6929572,0.7650452,0.31205,0.5333292,0.7273088,0.7514611,0.433541,1.00014,11.36117,13.4757,330,363.4,330.8,-35.13,9.78
"2014-08-06 00:20:00",1267748,-6.214066,-3.804513,-91.76437,20.64281,-58.82693,20.64528,0,-0.9973256,-47.01677,12.54403,0,0.004,1582,0,0,0,13.19488,11.95415,11.85015,20.9296,21.68663,21.33082,19.3797,15.9993,13.5643,18.90822,"NAN","NAN",20.85869,-55.30395,-17.81298,-9.977128,-15.23846,0.5050031,30.13554,35.29189,37.75589,39.25239,28.19372,34.08927,38.45667,38.95399,31.61621,0.3795523,0.5832236,0.6936932,0.7649358,0.3125,0.5323945,0.7266638,0.7504805,0.4342289,1.000153,11.35703,13.62021,330.7,363.6,330.7,-35.3,9.84
"2014-08-06 00:21:00",1267749,-6.214066,-3.816458,-91.8215,20.62505,-58.49109,20.64938,0,-0.9973256,-47.18468,12.53748,0,0.004,1426,0,0,0,13.14936,11.95415,11.82659,20.92302,21.69376,21.32424,19.3797,15.99581,13.5643,18.91878,"NAN","NAN",20.85213,-55.11508,-17.82406,-10.00822,-15.26147,0.5047707,30.11068,35.33258,37.74233,39.27273,28.19146,34.10735,38.46798,38.9653,31.5823,0.3786603,0.5849802,0.693062,0.7659251,0.3124251,0.5331419,0.7272012,0.7510248,0.4329411,1.000153,11.35703,13.51252,330.5,364,330.5,-35.85,9.91
"2014-08-06 00:22:00",1267750,-6.179839,-3.792535,-92.27869,20.64805,-59.3867,20.70196,0,-0.9973264,-46.68097,12.54403,0,0.004,1294,0,0,0,13.11316,11.88528,11.8041,20.91645,21.69019,21.33739,19.37641,15.9958,13.56775,18.90846,"NAN","NAN",20.85541,-54.96305,-17.83323,-10.02856,-15.28346,0.5050798,30.12424,35.29189,37.7672,39.25465,28.16434,34.12317,38.4838,38.93365,31.60265,0.3791462,0.5832239,0.6942212,0.7650453,0.311526,0.5338148,0.7279571,0.7495008,0.4337126,1.000153,11.35703,13.52725,330.2,363.4,331.1,-34.71,9.79
"2014-08-06 00:23:00",1267751,-6.128525,-3.840282,-92.62156,20.72166,-59.6666,20.7548,0,-0.8726611,-46.681,12.53091,0,0.004,1402,0,0,0,13.07436,11.80655,11.77831,20.89346,21.69076,21.32754,19.36983,16.00279,13.56775,18.91526,"NAN","NAN",20.85869,-54.80047,-17.8408,-10.04568,-15.30808,0.5043045,30.11972,35.30997,37.75138,39.26595,28.18468,34.10735,38.46119,38.97434,31.59134,0.3789841,0.5840032,0.6934828,0.7655951,0.3121999,0.5331417,0.7268787,0.7514613,0.4332837,1.000166,11.34197,13.26769,330.3,363.4,331,-34.71,9.8
"2014-08-06 00:24:00",1267752,-6.145613,-3.905979,-92.96449,20.80187,-60.05846,20.83198,0,-0.7479959,-46.68104,12.51125,0,0.004,1463,0,0,0,13.00196,11.77375,11.72508,20.89345,21.69761,21.33739,19.37312,15.9993,13.56775,18.89532,"NAN","NAN",20.86197,-54.53294,-17.85192,-10.06125,-15.33027,0.5029877,30.11746,35.30771,37.74685,39.26595,28.18468,34.10735,38.45441,39.01051,31.57326,0.3789029,0.5839055,0.6932724,0.765595,0.3121999,0.5331417,0.7265565,0.7532102,0.4325986,1.000153,11.33444,13.0698,330.4,363.5,330.9,-34.82,9.81
"2014-08-06 00:25:00",1267753,-6.231136,-3.971733,-92.45069,20.8613,-59.49903,20.89772,0,-0.9973328,-46.12155,12.49486,0,0.004,1481,0,0,0,12.95284,11.74751,11.6504,20.87375,21.67021,21.32754,19.36325,16.0237,13.5643,18.86604,"NAN","NAN",20.85213,-54.27342,-17.86236,-10.07446,-15.35347,0.5019742,30.11068,35.29867,37.73781,39.26821,28.2005,34.06666,38.45667,38.96304,31.58456,0.3786599,0.5835162,0.692852,0.7657099,0.3127254,0.5314575,0.726664,0.7509159,0.4330267,1.000153,11.33067,13.51436,331.3,364.4,331.4,-35.3,9.99
"2014-08-06 00:26:00",1267754,-6.310877,-3.959788,-92.27927,20.8621,-58.77139,20.90785,0,-0.9973328,-46.0096,12.45878,0,0.004,1526,0,0,0,12.9399,11.76719,11.63401,20.85403,21.6842,21.32754,19.36983,16.01673,13.56775,18.85973,"NAN","NAN",20.85213,-54.13701,-17.87088,-10.09409,-15.37392,0.501432,30.10842,35.31449,37.75138,39.26821,28.17338,34.11639,38.44085,39.03312,31.57778,0.3785788,0.5841988,0.6934829,0.7657049,0.3118254,0.5335178,0.7259121,0.7543195,0.4327699,1.000153,11.31561,13.33212,331.4,365.2,331.3,-36.26,10.14
"2014-08-06 00:27:00",1267755,-6.350706,-3.888092,-92.10815,20.84868,-58.65962,20.90075,0,-0.9973359,-46.00974,12.42927,0,0.004,1790,0,0,0,12.93973,11.87216,11.73223,20.85403,21.67792,21.33739,19.36325,16.02349,13.56775,18.83979,"NAN","NAN",20.84885,-54.15289,-17.88265,-10.11609,-15.39509,0.5019715,30.09937,35.35744,37.74233,39.25239,28.18694,34.08022,38.48154,38.94043,31.58456,0.3782549,0.5860591,0.6930622,0.7649361,0.3122754,0.5320192,0.7278476,0.7498265,0.4330267,1.000204,11.31184,13.51436,331.5,365.3,331.1,-36.6,10.15
"2014-08-06 00:28:00",1267756,-6.384838,-3.82237,-91.30835,20.82541,-57.82011,20.86486,0,-1.038893,-46.00981,12.43254,0,0.004,2108,0,0,0,12.94662,11.93448,11.81484,20.85403,21.65821,21.33082,19.36654,16.01673,13.56775,18.83298,"NAN","NAN",20.85541,-54.20018,-17.89365,-10.14141,-15.41803,0.5026659,30.11746,35.32127,37.74234,39.26369,28.1779,34.10735,38.45667,38.94947,31.58456,0.378904,0.5845008,0.6930625,0.765485,0.311975,0.5331421,0.7266638,0.7502635,0.4330268,1.000191,11.31184,13.60824,332.2,365.9,331.2,-37.31,10.28
"2014-08-06 00:29:00",1267757,-6.419012,-3.762645,-90.73701,20.75311,-57.14847,20.80595,0,-1.412896,-46.45762,12.46862,0,0.004,6045,0,0,0,12.95988,11.98042,11.86747,20.85403,21.6615,21.32452,19.36325,16.01673,13.56775,18.8365,"NAN","NAN",20.85213,-54.22119,-17.90645,-10.17251,-15.44019,0.5037503,30.09485,35.30319,37.74911,39.25691,28.14625,34.16838,38.44763,39.03085,31.57326,0.3780932,0.5837106,0.6933776,0.7651551,0.3109271,0.5356811,0.7262341,0.7542077,0.4325984,1.000153,11.29301,13.42232,332.4,366.2,330.9,-37.99,10.34
"2014-08-06 00:30:00",1267758,-6.419035,-3.685017,-90.50873,20.68383,-56.86879,20.75363,0,-1.4129,-46.56972,12.48502,0,0.004,7999,0,0,0,12.95678,12.11492,11.96617,20.85403,21.66808,21.33767,19.36654,16.02021,13.56775,18.84003,"NAN","NAN",20.85541,-54.22136,-17.91843,-10.2069,-15.46069,0.5050628,30.07677,35.38457,37.73329,39.24787,28.1779,34.10961,38.45893,38.96756,31.5597,0.3774455,0.5872331,0.6926414,0.7647152,0.311975,0.5332357,0.7267712,0.7511343,0.4320848,1.000178,11.28925,13.49411,332.2,366.2,330.9,-38.08,10.34
"2014-08-06 00:31:00",1267759,-6.430427,-3.607374,-90.68015,20.65347,-56.98073,20.70408,0,-1.246676,-46.68166,12.53091,0,0.004,7999,0,0,0,12.95351,12.18382,12.01851,20.85403,21.65192,21.32425,19.36325,16.01673,13.56775,18.8337,"NAN","NAN",20.84885,-54.1689,-17.93207,-10.23635,-15.48029,0.5063021,30.10842,35.31223,37.75816,39.25013,28.18468,34.08701,38.46345,38.96756,31.57326,0.3785788,0.5841007,0.6937985,0.7648261,0.3122,0.5322991,0.7269863,0.7511339,0.4325981,1.00014,11.28925,13.507,331.8,365.8,331,-37.64,10.26
"2014-08-06 00:32:00",1267760,-6.441868,-3.565595,-90.16605,20.61152,-56.70097,20.66438,0,-1.412903,-46.68175,12.55714,0,0.004,7999,0,0,0,12.96298,12.1871,12.04521,20.85403,21.65192,21.32096,19.36325,16.02021,13.56775,18.80066,"NAN","NAN",20.85869,-54.01164,-17.94504,-10.26755,-15.50261,0.5080819,30.10842,35.29866,37.74007,39.29082,28.18016,34.09605,38.46797,38.95626,31.5823,0.3785787,0.5835156,0.6929569,0.7668067,0.3120502,0.5326732,0.7272013,0.750589,0.432941,1.000153,11.28925,13.40575,332.1,365.9,331.1,-37.6,10.27
"2014-08-06 00:33:00",1267761,-6.396353,-3.505898,-89.93758,20.57813,-56.47713,20.63099,0,-1.496016,-46.62582,12.58993,0,0.004,7999,0,0,0,12.99592,12.18382,12.03804,20.84748,21.65164,21.32781,19.37312,16.0237,13.56775,18.78424,"NAN","NAN",20.84885,-53.79922,-17.96047,-10.2946,-15.52314,0.5090871,30.09937,35.30545,37.74685,39.27499,28.1779,34.10735,38.46571,38.97208,31.57778,0.3782547,0.5838081,0.6932724,0.7660351,0.3119751,0.5331418,0.7270938,0.751352,0.4327695,1.000153,11.28925,13.31831,332.1,365.9,331.4,-37.42,10.28
"2014-08-06 00:34:00",1267762,-6.3337,-3.458117,-89.7663,20.51897,-56.3093,20.58168,0,-1.496018,-46.73784,12.64568,0,0.004,7999,0,0,0,13.01556,12.20023,12.07381,20.83109,21.64864,21.33439,19.36325,16.00976,13.56775,18.76128,"NAN","NAN",20.85541,-53.60515,-17.9724,-10.31505,-15.54274,0.5097069,30.09937,35.33936,37.74685,39.26143,28.17338,34.10509,38.46798,38.97434,31.571,0.3782562,0.5852783,0.6932725,0.765375,0.3118252,0.5330481,0.7272013,0.7514614,0.4325124,1.000127,11.28172,13.30819,332,365.8,331.6,-37.11,10.25
"2014-08-06 00:35:00",1267763,-6.259654,-3.422281,-89.70983,20.49164,-56.42166,20.57103,0,-1.496029,-46.79416,12.69813,0,0.004,7999,0,0,0,13.03195,12.22974,12.09738,20.82451,21.6448,21.32096,19.36654,16.01673,13.56775,18.75424,"NAN","NAN",20.85541,-53.45846,-17.98603,-10.34123,-15.56405,0.5099291,30.10842,35.29867,37.74233,39.29308,28.15981,34.08022,38.47475,38.94947,31.56422,0.3785789,0.5835162,0.6930625,0.7669234,0.3113758,0.5320186,0.7275251,0.7502626,0.4322557,1.000115,11.28548,13.53185,331.9,365.6,331.8,-36.67,10.22
"2014-08-06 00:36:00",1267764,-6.253958,-3.416309,-89.42413,20.47849,-55.80595,20.52831,0,-1.329804,-47.29792,12.71125,0,0.004,7999,0,0,0,13.02196,12.22647,12.12705,20.8081,21.64864,21.33082,19.36325,16.00976,13.56447,18.7648,"NAN","NAN",20.85541,-53.38763,-18.00137,-10.3625,-15.5845,0.5101614,30.1152,35.29641,37.73329,39.29986,28.15529,34.12543,38.44311,39.0399,31.55292,0.3788219,0.5834187,0.692642,0.7672601,0.3112275,0.5339006,0.7260198,0.7546465,0.4318276,1.000089,11.27042,13.34132,332.1,366,331.3,-37.48,10.29
"2014-08-06 00:37:00",1267765,-6.23122,-3.392443,-88.91006,20.43329,-55.69411,20.48506,0,-1.454476,-46.79425,12.71781,0,0.004,7999,0,0,0,13.00247,12.20022,12.17626,20.80152,21.64179,21.32754,19.36325,16.00627,13.56775,18.76128,"NAN","NAN",20.85541,-53.29073,-18.01262,-10.38715,-15.60339,0.5116313,30.1039,35.30545,37.75138,39.26143,28.16885,34.10283,38.44085,39.00147,31.56196,0.3784167,0.5838082,0.6934829,0.7653765,0.3116758,0.5329577,0.7259122,0.7527756,0.4321698,1.000115,11.28172,13.52264,332.3,365.9,331.9,-36.8,10.27
"2014-08-06 00:38:00",1267766,-6.208481,-3.386494,-89.08157,20.40977,-55.80612,20.44919,0,-1.371364,-47.01819,12.74077,0,0.004,7999,0,0,0,12.97266,12.24615,12.11035,20.79167,21.6281,21.32096,19.36983,16.01673,13.56775,18.75144,"NAN","NAN",20.85212,-53.20161,-18.02634,-10.40929,-15.62563,0.5121718,30.11746,35.27154,37.7672,39.25239,28.16207,34.12317,38.45893,38.97886,31.56196,0.3789036,0.5823473,0.694221,0.7649359,0.3114511,0.5337997,0.7267714,0.7516794,0.4321698,1.00014,11.28925,13.51896,332,365.5,331.8,-36.57,10.2
"2014-08-06 00:39:00",1267767,-6.231264,-3.374549,-88.79589,20.37309,-55.35834,20.40595,0,-1.412921,-47.18613,12.77027,0,0.004,7999,0,0,0,12.97299,12.256,12.1269,20.78181,21.6385,21.33082,19.36654,16.00976,13.56775,18.72141,"NAN","NAN",20.85213,-53.12819,-18.03831,-10.43058,-15.6427,0.5131013,30.09937,35.29414,37.74459,39.25691,28.15529,34.10961,38.47023,38.97434,31.55744,0.3782553,0.5833207,0.6931672,0.7651556,0.3112262,0.533237,0.727309,0.7514613,0.4319985,1.000089,11.28925,13.69292,332.1,365.7,331.8,-36.82,10.24
"2014-08-06 00:40:00",1267768,-6.242732,-3.350699,-88.85316,20.32302,-55.47038,20.39558,0,-1.288254,-46.90633,12.80305,0,0.004,7999,0,0,0,12.93023,12.30193,12.16611,20.7851,21.63166,21.33082,19.37312,16.01324,13.57102,18.71509,"NAN","NAN",20.85541,-53.02868,-18.04872,-10.45278,-15.66246,0.5158875,30.09711,35.29415,37.75816,39.27951,28.17338,34.10735,38.46345,38.94947,31.58004,0.3781738,0.5833218,0.693799,0.7662554,0.3118252,0.533142,0.7269864,0.7502623,0.4328554,1.000076,11.28925,13.3312,331.8,365.6,332.2,-36.23,10.21
"2014-08-06 00:41:00",1267769,-6.254124,-3.30889,-88.68174,20.31315,-55.13453,20.37231,0,-1.080471,-47.29815,12.80305,0,0.004,7999,0,0,0,12.89715,12.26256,12.17922,20.77524,21.62481,21.32424,19.36654,16.01304,13.5643,18.69167,"NAN","NAN",20.85541,-52.88703,-18.05809,-10.47568,-15.68121,0.5182112,30.1039,35.29867,37.75364,39.25013,28.1892,34.09378,38.43633,39.08059,31.54613,0.3784167,0.5835156,0.6935882,0.7648253,0.3123506,0.5325798,0.7256973,0.7566168,0.431571,1.000076,11.28925,13.53829,331.9,365.8,331.8,-36.87,10.25
"2014-08-06 00:42:00",1267770,-6.254071,-3.267053,-88.1104,20.30002,-55.30249,20.34075,0,-1.371368,-46.79442,12.81945,0,0.004,7999,0,0,0,12.88044,12.26912,12.18283,20.77524,21.61112,21.32425,19.36983,16.00976,13.56775,18.6919,"NAN","NAN",20.84557,-52.70877,-18.06385,-10.4952,-15.69893,0.5206891,30.07903,35.35066,37.73555,39.31569,28.15755,34.12543,38.45667,38.97434,31.55292,0.3775273,0.5857737,0.6927471,0.7680234,0.3113014,0.533892,0.7266638,0.7514618,0.4318272,1.000064,11.28925,13.35605,332.4,365.4,332.4,-35.98,10.18
"2014-08-06 00:43:00",1267771,-6.236931,-3.290916,-88.51041,20.23734,-55.07861,20.30606,0,-1.496038,-47.35418,12.8588,0,0.004,7999,0,0,0,12.84801,12.26583,12.16907,20.77524,21.61824,21.32754,19.37312,16.00278,13.56775,18.68229,"NAN","NAN",20.84884,-52.57504,-18.07398,-10.51805,-15.71759,0.5218503,30.10163,35.30545,37.7559,39.2863,28.15755,34.11187,38.4318,39.00825,31.54613,0.3783357,0.5838081,0.6936934,0.766586,0.3113013,0.5333325,0.7254829,0.7531095,0.4315705,1.000127,11.28925,13.62389,331.6,365.4,332.1,-36.31,10.19
"2014-08-06 00:44:00",1267772,-6.265409,-3.284944,-88.33896,20.23431,-54.96664,20.30961,0,-1.412924,-47.35416,12.86208,0,0.004,7999,0,0,0,12.83475,12.35442,12.22531,20.77524,21.6144,21.32754,19.36983,16.01324,13.56775,18.67548,"NAN","NAN",20.85212,-52.48324,-18.07569,-10.54096,-15.73634,0.5225474,30.09485,35.31675,37.74233,39.25917,28.14625,34.14126,38.45441,39.01277,31.5597,0.378093,0.5843063,0.6930634,0.7652664,0.3109277,0.5345695,0.7265571,0.7533266,0.4320841,1.000076,11.30054,13.50148,331.8,365.6,332.1,-36.46,10.21
"2014-08-06 00:45:00",1267773,-6.293893,-3.273,-88.11024,20.22368,-54.91057,20.28002,0,-1.288252,-47.41005,12.88176,0,0.004,7999,0,0,0,12.82508,12.39706,12.30372,20.77524,21.61468,21.32424,19.36983,16.00976,13.56775,18.67548,"NAN","NAN",20.85541,-52.36791,-18.07996,-10.5606,-15.75339,0.52224,30.09033,35.29641,37.73555,39.31342,28.14399,34.11639,38.44085,38.93365,31.54161,0.3779312,0.5834207,0.6927468,0.7679205,0.3108524,0.5335292,0.725912,0.7494994,0.4313994,1.000064,11.31184,13.54013,331.9,365.5,332.1,-36.34,10.19